Powrót do katalogu

DMSP 5D-2 F13 DEB

AktywnySSO
NORAD 40612·DEBRIS·🇺🇸 United States

Wystrzelony Mar 24, 1995 z Vandenberg Space Force Base

Loading…

Następne Przeloty (najbliższe 24 godziny)

TLE

ŚwieżeSource: Space-Track

Epoka: Sep 14, 2026, 07:53 UTC

1 40612U 95015FK  26257.32854763  .00002644  00000-0  85672-3 0  9990
2 40612  98.6752 296.7018 0007196 118.6815 241.5097 14.39816083592173

Śledź DMSP 5D-2 F13 DEB w czasie rzeczywistym z AllMySat

Download on the App Store